Terminal Aerodrome Forecast
Issued by NWS Cleveland, OH

Home | Current Version | Previous Version | Graphics & Text | Print | Product List | Glossary On
Versions: 1 2 3 4 5 6 7 8 9 10 11 12 13 14 15 16 17 18 19 20 21 22 23 24 25 26 27 28
256
FTUS41 KCLE 151720
TAFCLE
TAF
KCLE 151720Z 1518/1624 15003KT P6SM BKN250
     FM161400 15006KT 6SM HZ SCT035 OVC100
     FM162300 12003KT 5SM BR SCT012 OVC025=

USA.gov is the U.S. government's official web portal to all federal, state and local government web resources and services.